User: anonymous   Login
Location: Zlin
(49.2330°N, 17.6670°E)
Time: 15:47:26
(UTC+02:00)
Language:

ISS - Orbit

View from above orbital plane
View from above orbital plane
View from above satellite
View from above satellite

Ground track
Ground track

The orbit data is extracted from the following two-line orbital elements,

1 25544U 98067A   16145.24395256  .00003336  00000-0  56493-4 0  9999
2 25544  51.6426 177.4738 0001786 114.4081 336.0110 15.54682439  1264
Epoch (UTC): 24 May 2016 05:51:17
Eccentricity: 0.0001786
inclination: 51.6426°
perigee height: 402 km
apogee height: 404 km
right ascension of ascending node: 177.4738°
argument of perigee: 114.4081°
revolutions per day: 15.54682439
mean anomaly at epoch: 336.0110°
orbit number at epoch: 126

The dashed part of the orbit path shows where the satellite is in the earth's shadow,  

DLR